Content
SEND FEEDBACK

Daily
Averages
Monthly
Summary
Canada

MONTREAL, QUEBEC


Home > North America > Canada > Quebec
Elevation: 118 feet     Latitude: 45 28N     Longitude: 073 45W

WEATHER
 
SELECT A DAY
Number of Records: 202,447;   Date Range: 1/1/95 - 11/22/14
 
SHARE

PRINT THIS DATA

[ ← Previous Day ]
WEATHER ALMANAC - MAY 7, 2013
[ Next Day → ]
[ °C ]   °F
Weather ElementAverageHighLow
Temperature68.9 °F82.4 °F (5:00 pm)55.4 °F (4:00 am)
Dewpoint39.9 °F46.4 °F (12:00 pm)33.8 °F (5:00 pm)
Humidity35.7 %55 % (3:00 am)16 % (8:00 pm)
Barometer30.05 in30.10 in (8:00 am)30.01 in (5:00 pm)
Wind Speed8.4 mph13.8 mph (2:00 pm)
Weather ElementAverage
Visibility25.2 mi
Wind DirectionSSW (210 °)

Weather ElementTotal
Precipitation---
Cooling Degree Days3.9 (Base 65)
Growing Degree Days18.9 (Base 50)
Averaged from 26 records on May 7, 2013
WEATHER CONDITIONS BREAKOUT
WIND DIRECTION BREAKOUT
WEATHER BY HOUR - MAY 7, 2013
[ °C ]   °F
Local TimeTemperatureDewpointHumidityBarometerVisibilityWind DirectionWind SpeedGust SpeedPrecipitationEventsConditions
1:00 AM59.0 °F37.4 °F45 %30.04 in15.0 miSW (220°)3.5 mphClear
2:00 AM59.0 °F41.0 °F51 %30.04 in15.0 miSSW (210°)3.5 mphClear
3:00 AM57.2 °F41.0 °F55 %30.05 in15.0 miSW (230°)5.8 mphClear
4:00 AM55.4 °F37.4 °F51 %30.05 in15.0 miSW (230°)5.8 mphClear
5:00 AM55.4 °F37.4 °F51 %30.06 in15.0 miWSW (240°)5.8 mphClear
6:00 AM55.4 °F37.4 °F51 %30.07 in30.0 miSouth (190°)6.9 mphPartly Cloudy
7:00 AM57.2 °F41.0 °F55 %30.08 in30.0 miSSW (200°)8.1 mphPartly Cloudy
8:00 AM60.0 °F39.0 °F34 %30.10 in28.0 miSouth (190°)8.1 mphClear
8:00 AM60.8 °F39.2 °F45 %30.09 in30.0 miSouth (190°)6.9 mphPartly Cloudy
9:00 AM62.6 °F41.0 °F45 %30.10 in30.0 miSSW (210°)8.1 mphClear
10:00 AM68.0 °F42.8 °F40 %30.10 in30.0 miSW (220°)11.5 mphPartly Cloudy
11:00 AM69.8 °F44.6 °F40 %30.10 in30.0 miSSW (200°)10.4 mphPartly Cloudy
12:00 PM73.4 °F46.4 °F38 %30.08 in30.0 miSSW (200°)11.5 mphPartly Cloudy
1:00 PM77.0 °F46.4 °F34 %30.07 in30.0 miSSW (210°)12.7 mphPartly Cloudy
2:00 PM80.0 °F43.0 °F17 %30.05 in28.0 miSSW (200°)13.8 mphScattered Clouds
2:00 PM78.8 °F42.8 °F28 %30.05 in30.0 miSouth (190°)13.8 mphScattered Clouds
3:00 PM80.6 °F41.0 °F24 %30.04 in30.0 miSSW (200°)13.8 mphScattered Clouds
4:00 PM80.6 °F39.2 °F23 %30.02 in30.0 miSSW (200°)13.8 mphScattered Clouds
5:00 PM82.4 °F33.8 °F17 %30.01 in30.0 miSSW (210°)11.5 mphScattered Clouds
6:00 PM82.4 °F39.2 °F21 %30.01 in30.0 miSSW (200°)9.2 mphPartly Cloudy
7:00 PM78.8 °F37.4 °F23 %30.01 in30.0 miSSW (210°)8.1 mphScattered Clouds
8:00 PM75.0 °F37.0 °F16 %30.02 in28.0 miSW (220°)5.8 mphClear
8:00 PM75.2 °F37.4 °F25 %30.02 in30.0 miSW (220°)5.8 mphScattered Clouds
9:00 PM73.4 °F35.6 °F25 %30.04 in15.0 miSSW (210°)4.6 mphPartly Cloudy
10:00 PM68.0 °F39.2 °F35 %30.05 in15.0 miSouth (180°)5.8 mphClear
11:00 PM66.2 °F41.0 °F40 %30.05 in15.0 miWest (280°)3.5 mphClear
Hourly data recorded from CYUL, located miles away from Montreal, Quebec







STORIES FROM OUR PARTNERS